Time,TemperatureF,DewpointF,PressureIn,WindDirection,WindDirectionDegrees,WindSpeedMPH,WindSpeedGustMPH,Humidity,HourlyPrecipIn,Conditions,Clouds,dailyrainin,SolarRadiationWatts/m^2,SoftwareType,DateUTC
2013-05-17 00:00:00,75.3,73.8,29.75,South,175,12.2,20.2,95,0.00,,---,0.00,0.00,VWS V14.01,2013-05-17 05:00:00,
2013-05-17 00:01:00,75.3,73.8,29.75,SE,144,14.2,20.2,95,0.00,,---,0.00,,VWS V14.01,2013-05-17 05:01:00,
2013-05-17 00:05:00,75.3,73.8,29.75,South,171,8.2,17.2,95,0.00,,---,0.00,0.00,VWS V14.01,2013-05-17 05:05:00,
2013-05-17 00:06:00,75.3,73.8,29.75,South,173,5.2,17.2,95,0.00,,---,0.00,,VWS V14.01,2013-05-17 05:06:00,
2013-05-17 00:10:00,75.3,73.8,29.75,SSE,165,12.2,18.2,95,0.00,,---,0.00,0.00,VWS V14.01,2013-05-17 05:10:00,
2013-05-17 00:11:00,75.3,73.8,29.75,SSE,149,11.2,18.2,95,0.00,,---,0.00,,VWS V14.01,2013-05-17 05:11:00,
2013-05-17 00:15:00,75.3,73.8,29.76,SSE,162,10.2,17.2,95,0.00,,---,0.00,0.00,VWS V14.01,2013-05-17 05:15:00,
2013-05-17 00:16:00,75.3,73.8,29.76,SSE,165,11.2,17.2,95,0.00,,---,0.00,,VWS V14.01,2013-05-17 05:16:00,
2013-05-17 00:20:00,75.3,73.8,29.76,SSE,162,5.2,15.2,95,0.00,,---,0.00,0.00,VWS V14.01,2013-05-17 05:20:00,
2013-05-17 00:21:00,75.3,73.8,29.76,SE,136,13.2,15.2,95,0.00,,---,0.00,,VWS V14.01,2013-05-17 05:21:00,
2013-05-17 00:25:00,75.1,73.6,29.76,SSW,194,6.2,18.2,95,0.00,,---,0.00,0.00,VWS V14.01,2013-05-17 05:25:00,
2013-05-17 00:26:00,75.1,73.6,29.76,SE,128,6.2,18.2,95,0.00,,---,0.00,,VWS V14.01,2013-05-17 05:26:00,
2013-05-17 00:30:00,75.1,73.6,29.76,SSE,147,6.2,14.2,95,0.00,,---,0.00,0.00,VWS V14.01,2013-05-17 05:30:00,
2013-05-17 00:31:00,75.1,73.6,29.76,SSE,162,5.2,14.2,95,0.00,,---,0.00,,VWS V14.01,2013-05-17 05:31:00,
2013-05-17 00:35:00,75.1,73.6,29.76,SSE,155,8.2,15.2,95,0.00,,---,0.00,0.00,VWS V14.01,2013-05-17 05:35:00,
2013-05-17 00:36:00,75.1,73.6,29.76,SE,146,5.2,15.2,95,0.00,,---,0.00,,VWS V14.01,2013-05-17 05:36:00,
2013-05-17 00:40:00,75.1,73.6,29.76,SSW,198,6.2,16.2,95,0.00,,---,0.00,0.00,VWS V14.01,2013-05-17 05:40:00,
2013-05-17 00:41:00,75.1,73.6,29.76,SE,141,11.2,16.2,95,0.00,,---,0.00,,VWS V14.01,2013-05-17 05:41:00,
2013-05-17 00:45:00,75.1,73.6,29.75,SE,134,13.2,17.2,95,0.00,,---,0.00,0.00,VWS V14.01,2013-05-17 05:45:00,
2013-05-17 00:46:00,75.1,73.6,29.75,SSE,147,6.2,17.2,95,0.00,,---,0.00,,VWS V14.01,2013-05-17 05:46:00,
2013-05-17 00:50:00,75.4,73.9,29.75,SSE,152,7.2,16.2,95,0.00,,---,0.00,0.00,VWS V14.01,2013-05-17 05:50:00,
2013-05-17 00:51:00,75.4,73.9,29.75,SSW,200,12.2,16.2,95,0.00,,---,0.00,,VWS V14.01,2013-05-17 05:51:00,
2013-05-17 00:55:00,75.3,73.8,29.75,SSE,149,13.2,15.2,95,0.00,,---,0.00,0.00,VWS V14.01,2013-05-17 05:55:00,
2013-05-17 00:56:00,75.3,73.8,29.75,SE,144,10.2,15.2,95,0.00,,---,0.00,,VWS V14.01,2013-05-17 05:56:00,
2013-05-17 01:00:00,75.3,73.8,29.76,South,184,6.2,16.2,95,0.00,,---,0.00,0.00,VWS V14.01,2013-05-17 06:00:00,
2013-05-17 01:01:00,75.3,73.8,29.76,SE,143,7.2,16.2,95,0.00,,---,0.00,,VWS V14.01,2013-05-17 06:01:00,
2013-05-17 01:05:00,75.3,73.8,29.76,SSE,164,4.2,11.2,95,0.00,,---,0.00,0.00,VWS V14.01,2013-05-17 06:05:00,
2013-05-17 01:06:00,75.3,73.8,29.76,SSE,162,7.2,11.2,95,0.00,,---,0.00,,VWS V14.01,2013-05-17 06:06:00,
2013-05-17 01:10:00,75.3,73.8,29.76,SSE,160,8.2,16.2,95,0.00,,---,0.00,0.00,VWS V14.01,2013-05-17 06:10:00,
2013-05-17 01:11:00,75.3,73.8,29.76,SSE,167,11.2,16.2,95,0.00,,---,0.00,,VWS V14.01,2013-05-17 06:11:00,
2013-05-17 01:15:00,75.1,73.6,29.75,SSE,153,4.2,18.2,95,0.00,,---,0.00,0.00,VWS V14.01,2013-05-17 06:15:00,
2013-05-17 01:16:00,75.1,73.6,29.75,SSE,152,4.2,18.2,95,0.00,,---,0.00,,VWS V14.01,2013-05-17 06:16:00,
2013-05-17 01:20:00,75.1,73.6,29.75,SSE,151,4.2,16.2,95,0.00,,---,0.00,0.00,VWS V14.01,2013-05-17 06:20:00,
2013-05-17 01:21:00,75.1,73.6,29.75,SSE,151,6.2,16.2,95,0.00,,---,0.00,,VWS V14.01,2013-05-17 06:21:00,
2013-05-17 01:25:00,75.3,73.8,29.75,SSE,167,8.2,15.2,95,0.00,,---,0.00,0.00,VWS V14.01,2013-05-17 06:25:00,
2013-05-17 01:26:00,75.3,73.8,29.75,SSE,168,6.2,15.2,95,0.00,,---,0.00,,VWS V14.01,2013-05-17 06:26:00,
2013-05-17 01:30:00,75.3,74.1,29.75,SE,128,10.2,15.2,96,0.00,,---,0.00,0.00,VWS V14.01,2013-05-17 06:30:00,
2013-05-17 01:31:00,75.3,74.1,29.75,South,176,6.2,15.2,96,0.00,,---,0.00,,VWS V14.01,2013-05-17 06:31:00,
2013-05-17 01:35:00,75.3,74.1,29.75,SSE,147,8.2,20.2,96,0.00,,---,0.00,0.00,VWS V14.01,2013-05-17 06:35:00,
2013-05-17 01:36:00,75.3,74.1,29.75,South,175,5.2,20.2,96,0.00,,---,0.00,,VWS V14.01,2013-05-17 06:36:00,
2013-05-17 01:40:00,75.3,74.1,29.75,SSW,204,8.2,14.2,96,0.00,,---,0.00,0.00,VWS V14.01,2013-05-17 06:40:00,
2013-05-17 01:41:00,75.3,74.1,29.75,SSE,164,5.2,14.2,96,0.00,,---,0.00,,VWS V14.01,2013-05-17 06:41:00,
2013-05-17 01:45:00,75.1,73.9,29.75,South,182,7.2,17.2,96,0.00,,---,0.00,0.00,VWS V14.01,2013-05-17 06:45:00,
2013-05-17 01:46:00,75.1,73.9,29.75,SSE,161,12.2,17.2,96,0.00,,---,0.00,,VWS V14.01,2013-05-17 06:46:00,
2013-05-17 01:50:00,75.1,73.9,29.75,SE,138,7.2,15.2,96,0.00,,---,0.00,0.00,VWS V14.01,2013-05-17 06:50:00,
2013-05-17 01:51:00,75.1,73.9,29.75,SE,137,4.2,15.2,96,0.00,,---,0.00,,VWS V14.01,2013-05-17 06:51:00,
2013-05-17 01:55:00,75.1,73.9,29.75,SSW,206,3.2,18.2,96,0.00,,---,0.00,0.00,VWS V14.01,2013-05-17 06:55:00,
2013-05-17 01:56:00,75.1,73.9,29.75,SE,140,3.2,18.2,96,0.00,,---,0.00,,VWS V14.01,2013-05-17 06:56:00,
2013-05-17 02:00:00,75.1,73.9,29.75,SSE,155,11.2,15.2,96,0.00,,---,0.00,0.00,VWS V14.01,2013-05-17 07:00:00,
2013-05-17 02:01:00,75.1,73.9,29.75,SSE,153,10.2,15.2,96,0.00,,---,0.00,,VWS V14.01,2013-05-17 07:01:00,
2013-05-17 02:05:00,75.1,73.9,29.75,SE,137,6.2,12.2,96,0.00,,---,0.00,0.00,VWS V14.01,2013-05-17 07:05:00,
2013-05-17 02:06:00,75.1,73.9,29.75,SSE,158,5.2,12.2,96,0.00,,---,0.00,,VWS V14.01,2013-05-17 07:06:00,
2013-05-17 02:10:00,75.1,73.9,29.75,SSE,160,6.2,12.2,96,0.00,,---,0.00,0.00,VWS V14.01,2013-05-17 07:10:00,
2013-05-17 02:11:00,75.1,73.9,29.75,SSE,154,4.2,12.2,96,0.00,,---,0.00,,VWS V14.01,2013-05-17 07:11:00,
2013-05-17 02:15:00,75.1,73.9,29.74,South,171,2.2,11.2,96,0.00,,---,0.00,0.00,VWS V14.01,2013-05-17 07:15:00,
2013-05-17 02:16:00,75.1,73.9,29.74,South,171,3.2,11.2,96,0.00,,---,0.00,,VWS V14.01,2013-05-17 07:16:00,
2013-05-17 02:20:00,75.3,74.1,29.74,SE,144,4.2,14.2,96,0.00,,---,0.00,0.00,VWS V14.01,2013-05-17 07:20:00,
2013-05-17 02:21:00,75.3,74.1,29.74,South,186,9.2,14.2,96,0.00,,---,0.00,,VWS V14.01,2013-05-17 07:21:00,
2013-05-17 02:25:00,75.3,74.1,29.74,South,182,5.2,17.2,96,0.00,,---,0.00,0.00,VWS V14.01,2013-05-17 07:25:00,
2013-05-17 02:26:00,75.3,74.1,29.74,SSE,161,7.2,17.2,96,0.00,,---,0.00,,VWS V14.01,2013-05-17 07:26:00,
2013-05-17 02:30:00,75.3,74.1,29.73,SSE,168,8.2,18.2,96,0.00,,---,0.00,0.00,VWS V14.01,2013-05-17 07:30:00,
2013-05-17 02:31:00,75.3,74.1,29.73,SSE,166,8.2,18.2,96,0.00,,---,0.00,,VWS V14.01,2013-05-17 07:31:00,
2013-05-17 02:35:00,75.4,74.2,29.73,South,175,15.2,16.2,96,0.00,,---,0.00,0.00,VWS V14.01,2013-05-17 07:35:00,
2013-05-17 02:36:00,75.4,74.2,29.73,ESE,104,7.2,16.2,96,0.00,,---,0.00,,VWS V14.01,2013-05-17 07:36:00,
2013-05-17 02:40:00,75.3,73.8,29.73,SSE,164,3.2,18.2,95,0.00,,---,0.00,0.00,VWS V14.01,2013-05-17 07:40:00,
2013-05-17 02:41:00,75.3,73.8,29.73,SSE,161,7.2,18.2,95,0.00,,---,0.00,,VWS V14.01,2013-05-17 07:41:00,
2013-05-17 02:45:00,75.3,73.8,29.73,SSE,147,6.2,15.2,95,0.00,,---,0.00,0.00,VWS V14.01,2013-05-17 07:45:00,
2013-05-17 02:46:00,75.3,73.8,29.73,South,179,10.2,15.2,95,0.00,,---,0.00,,VWS V14.01,2013-05-17 07:46:00,
2013-05-17 02:50:00,75.1,73.6,29.73,SE,138,4.2,18.2,95,0.00,,---,0.00,0.00,VWS V14.01,2013-05-17 07:50:00,
2013-05-17 02:51:00,75.1,73.6,29.73,SE,137,7.2,18.2,95,0.00,,---,0.00,,VWS V14.01,2013-05-17 07:51:00,
2013-05-17 02:55:00,75.1,73.6,29.73,SSE,164,10.2,18.2,95,0.00,,---,0.00,0.00,VWS V14.01,2013-05-17 07:55:00,
2013-05-17 02:56:00,75.1,73.6,29.73,South,172,11.2,18.2,95,0.00,,---,0.00,,VWS V14.01,2013-05-17 07:56:00,
2013-05-17 03:00:00,75.1,73.6,29.73,SE,142,14.2,15.2,95,0.00,,---,0.00,0.00,VWS V14.01,2013-05-17 08:00:00,
2013-05-17 03:01:00,75.1,73.6,29.73,SSE,165,5.2,15.2,95,0.00,,---,0.00,,VWS V14.01,2013-05-17 08:01:00,
2013-05-17 03:05:00,75.1,73.6,29.73,SSW,200,7.2,14.2,95,0.00,,---,0.00,0.00,VWS V14.01,2013-05-17 08:05:00,
2013-05-17 03:06:00,75.1,73.6,29.73,SSE,165,4.2,14.2,95,0.00,,---,0.00,,VWS V14.01,2013-05-17 08:06:00,
2013-05-17 03:10:00,74.9,73.4,29.73,South,191,12.2,17.2,95,0.00,,---,0.00,0.00,VWS V14.01,2013-05-17 08:10:00,
2013-05-17 03:11:00,74.9,73.4,29.73,SSE,161,7.2,17.2,95,0.00,,---,0.00,,VWS V14.01,2013-05-17 08:11:00,
2013-05-17 03:15:00,74.9,73.4,29.72,SSE,153,3.2,16.2,95,0.00,,---,0.00,0.00,VWS V14.01,2013-05-17 08:15:00,
2013-05-17 03:16:00,74.9,73.4,29.72,SSE,158,5.2,16.2,95,0.00,,---,0.00,,VWS V14.01,2013-05-17 08:16:00,
2013-05-17 03:20:00,74.9,73.4,29.72,SSE,147,10.2,18.2,95,0.00,,---,0.00,,VWS V14.01,2013-05-17 08:20:00,
2013-05-17 03:25:00,74.9,73.4,29.72,South,176,11.2,17.2,95,0.00,,---,0.00,,VWS V14.01,2013-05-17 08:25:00,
2013-05-17 03:30:00,74.7,73.2,29.72,SSE,147,8.2,20.2,95,0.00,,---,0.00,,VWS V14.01,2013-05-17 08:30:00,
2013-05-17 03:35:00,74.7,73.2,29.72,SSE,158,12.2,15.2,95,0.00,,---,0.00,,VWS V14.01,2013-05-17 08:35:00,
2013-05-17 03:40:00,74.9,73.7,29.72,SSW,198,6.2,17.2,96,0.00,,---,0.00,,VWS V14.01,2013-05-17 08:40:00,
2013-05-17 03:45:00,74.9,73.7,29.73,SSE,164,2.2,20.2,96,0.00,,---,0.00,,VWS V14.01,2013-05-17 08:45:00,
2013-05-17 03:50:00,74.7,73.5,29.73,SE,140,6.2,15.2,96,0.00,,---,0.00,,VWS V14.01,2013-05-17 08:50:00,
2013-05-17 03:55:00,74.7,73.5,29.73,SSE,153,4.2,19.2,96,0.00,,---,0.00,,VWS V14.01,2013-05-17 08:55:00,
2013-05-17 04:00:00,74.9,73.7,29.73,South,181,12.2,15.2,96,0.00,,---,0.00,,VWS V14.01,2013-05-17 09:00:00,
2013-05-17 04:05:00,74.9,73.7,29.73,SE,144,15.2,16.2,96,0.00,,---,0.00,,VWS V14.01,2013-05-17 09:05:00,
2013-05-17 04:10:00,74.9,73.7,29.73,SSE,153,5.2,18.2,96,0.00,,---,0.00,,VWS V14.01,2013-05-17 09:10:00,
2013-05-17 04:15:00,74.9,73.4,29.73,South,184,7.2,22.2,95,0.00,,---,0.00,,VWS V14.01,2013-05-17 09:15:00,
2013-05-17 04:20:00,74.9,73.4,29.73,South,180,8.2,16.2,95,0.00,,---,0.00,,VWS V14.01,2013-05-17 09:20:00,
2013-05-17 04:25:00,74.9,73.4,29.73,South,182,7.2,19.2,95,0.00,,---,0.00,,VWS V14.01,2013-05-17 09:25:00,
2013-05-17 04:30:00,74.9,73.4,29.73,SSW,198,6.2,17.2,95,0.00,,---,0.00,,VWS V14.01,2013-05-17 09:30:00,
2013-05-17 04:35:00,74.7,73.2,29.73,SSE,162,3.2,15.2,95,0.00,,---,0.00,,VWS V14.01,2013-05-17 09:35:00,
2013-05-17 04:40:00,74.7,73.2,29.73,SSE,161,7.2,18.2,95,0.00,,---,0.00,,VWS V14.01,2013-05-17 09:40:00,
2013-05-17 04:45:00,74.7,73.2,29.73,SSE,155,4.2,21.2,95,0.00,,---,0.00,,VWS V14.01,2013-05-17 09:45:00,
2013-05-17 04:50:00,74.7,73.2,29.73,SE,130,13.2,14.2,95,0.00,,---,0.00,,VWS V14.01,2013-05-17 09:50:00,
2013-05-17 04:55:00,74.9,73.4,29.73,South,188,6.2,14.2,95,0.00,,---,0.00,,VWS V14.01,2013-05-17 09:55:00,
2013-05-17 05:00:00,74.9,73.4,29.73,SW,219,13.2,17.2,95,0.00,,---,0.00,,VWS V14.01,2013-05-17 10:00:00,
2013-05-17 05:05:00,74.7,73.2,29.73,South,177,3.2,12.2,95,0.00,,---,0.00,,VWS V14.01,2013-05-17 10:05:00,
2013-05-17 05:10:00,74.7,73.2,29.73,South,181,11.2,17.2,95,0.00,,---,0.00,,VWS V14.01,2013-05-17 10:10:00,
2013-05-17 05:15:00,74.6,73.1,29.74,SSW,193,11.2,14.2,95,0.00,,---,0.00,,VWS V14.01,2013-05-17 10:15:00,
2013-05-17 05:20:00,74.6,73.1,29.74,South,175,5.2,14.2,95,0.00,,---,0.00,,VWS V14.01,2013-05-17 10:20:00,
2013-05-17 05:25:00,74.6,73.1,29.74,SE,142,4.2,15.2,95,0.00,,---,0.00,,VWS V14.01,2013-05-17 10:25:00,
2013-05-17 05:30:00,74.6,73.1,29.74,SSW,207,5.2,12.2,95,0.00,,---,0.00,,VWS V14.01,2013-05-17 10:30:00,
2013-05-17 05:35:00,74.6,73.1,29.74,SSE,166,6.2,11.2,95,0.00,,---,0.00,,VWS V14.01,2013-05-17 10:35:00,
2013-05-17 05:40:00,74.7,73.2,29.74,SE,146,5.2,14.2,95,0.00,,---,0.00,,VWS V14.01,2013-05-17 10:40:00,
2013-05-17 05:45:00,74.9,73.4,29.75,SSE,156,10.2,13.2,95,0.00,,---,0.00,,VWS V14.01,2013-05-17 10:45:00,
2013-05-17 05:50:00,74.9,73.4,29.75,SSE,157,15.2,16.2,95,0.00,,---,0.00,,VWS V14.01,2013-05-17 10:50:00,
2013-05-17 05:55:00,74.9,73.4,29.75,South,169,2.2,12.2,95,0.00,,---,0.00,,VWS V14.01,2013-05-17 10:55:00,
2013-05-17 06:00:00,74.9,73.4,29.75,SSE,165,4.2,16.2,95,0.00,,---,0.00,,VWS V14.01,2013-05-17 11:00:00,
2013-05-17 06:05:00,74.9,73.4,29.75,SSE,168,4.2,14.2,95,0.00,,---,0.00,,VWS V14.01,2013-05-17 11:05:00,
2013-05-17 06:10:00,74.9,73.4,29.75,SSE,152,10.2,17.2,95,0.00,,---,0.00,,VWS V14.01,2013-05-17 11:10:00,
2013-05-17 06:15:00,74.9,73.4,29.75,SSE,159,4.2,13.2,95,0.00,,---,0.00,,VWS V14.01,2013-05-17 11:15:00,
2013-05-17 06:20:00,75.1,73.6,29.75,South,176,2.2,12.2,95,0.00,,---,0.00,,VWS V14.01,2013-05-17 11:20:00,
2013-05-17 06:25:00,74.9,73.1,29.75,SSE,159,10.2,14.2,94,0.00,,---,0.00,,VWS V14.01,2013-05-17 11:25:00,
2013-05-17 06:30:00,74.9,73.4,29.75,SSW,198,2.2,14.2,95,0.00,,---,0.00,,VWS V14.01,2013-05-17 11:30:00,
2013-05-17 06:35:00,74.9,73.1,29.75,SW,217,3.2,12.2,94,0.00,,---,0.00,,VWS V14.01,2013-05-17 11:35:00,
2013-05-17 06:40:00,74.9,73.4,29.75,South,173,3.2,15.2,95,0.00,,---,0.00,,VWS V14.01,2013-05-17 11:40:00,
2013-05-17 06:45:00,74.9,73.1,29.76,SSE,151,7.2,13.2,94,0.00,,---,0.00,,VWS V14.01,2013-05-17 11:45:00,
2013-05-17 06:50:00,75.1,73.3,29.76,SSE,157,16.2,16.2,94,0.00,,---,0.00,,VWS V14.01,2013-05-17 11:50:00,
2013-05-17 06:55:00,74.9,73.1,29.76,SSE,155,2.2,12.2,94,0.00,,---,0.00,,VWS V14.01,2013-05-17 11:55:00,
2013-05-17 07:00:00,75.1,73.3,29.76,SSE,153,4.2,14.2,94,0.00,,---,0.00,,VWS V14.01,2013-05-17 12:00:00,
2013-05-17 07:05:00,75.1,73.3,29.76,SSE,162,5.2,15.2,94,0.00,,---,0.00,,VWS V14.01,2013-05-17 12:05:00,
2013-05-17 07:10:00,75.1,73.3,29.76,SSE,157,6.2,13.2,94,0.00,,---,0.00,,VWS V14.01,2013-05-17 12:10:00,
2013-05-17 07:15:00,75.3,73.5,29.77,SSE,165,7.2,11.2,94,0.00,,---,0.00,,VWS V14.01,2013-05-17 12:15:00,
2013-05-17 07:20:00,75.4,73.6,29.77,SSE,156,4.2,14.2,94,0.00,,---,0.00,,VWS V14.01,2013-05-17 12:20:00,
2013-05-17 07:25:00,75.4,73.6,29.77,South,169,1.2,14.2,94,0.00,,---,0.00,,VWS V14.01,2013-05-17 12:25:00,
2013-05-17 07:30:00,75.4,73.6,29.78,South,176,4.2,15.2,94,0.00,,---,0.00,,VWS V14.01,2013-05-17 12:30:00,
2013-05-17 07:35:00,75.4,73.6,29.78,SSE,159,1.2,6.2,94,0.00,,---,0.00,,VWS V14.01,2013-05-17 12:35:00,
2013-05-17 07:40:00,75.4,73.6,29.78,SSE,160,5.2,15.2,94,0.00,,---,0.00,,VWS V14.01,2013-05-17 12:40:00,
2013-05-17 07:45:00,75.4,73.6,29.78,SSE,149,8.2,18.2,94,0.00,,---,0.00,,VWS V14.01,2013-05-17 12:45:00,
2013-05-17 07:50:00,75.4,73.6,29.78,South,180,2.2,9.2,94,0.00,,---,0.00,,VWS V14.01,2013-05-17 12:50:00,
2013-05-17 07:55:00,75.4,73.6,29.78,SSE,165,11.2,12.2,94,0.00,,---,0.00,,VWS V14.01,2013-05-17 12:55:00,
2013-05-17 08:00:00,75.6,73.8,29.78,South,182,6.2,15.2,94,0.00,,---,0.00,,VWS V14.01,2013-05-17 13:00:00,
2013-05-17 08:05:00,75.6,73.8,29.78,SE,137,7.2,14.2,94,0.00,,---,0.00,,VWS V14.01,2013-05-17 13:05:00,
2013-05-17 08:10:00,75.6,73.8,29.78,South,176,5.2,7.2,94,0.00,,---,0.00,,VWS V14.01,2013-05-17 13:10:00,
2013-05-17 08:15:00,75.6,73.8,29.79,SE,135,7.2,17.2,94,0.00,,---,0.00,,VWS V14.01,2013-05-17 13:15:00,
2013-05-17 08:20:00,75.8,73.9,29.79,South,172,6.2,12.2,94,0.00,,---,0.00,,VWS V14.01,2013-05-17 13:20:00,
2013-05-17 08:25:00,75.8,73.6,29.79,SSE,163,5.2,16.2,93,0.00,,---,0.00,,VWS V14.01,2013-05-17 13:25:00,
2013-05-17 08:30:00,75.8,73.6,29.79,South,179,3.2,17.2,93,0.00,,---,0.00,,VWS V14.01,2013-05-17 13:30:00,
2013-05-17 08:35:00,76.0,73.8,29.79,SSE,150,4.2,10.2,93,0.00,,---,0.00,,VWS V14.01,2013-05-17 13:35:00,
2013-05-17 08:40:00,76.1,73.9,29.79,South,178,9.2,12.2,93,0.00,,---,0.00,,VWS V14.01,2013-05-17 13:40:00,
2013-05-17 08:45:00,76.3,73.8,29.79,SSE,165,5.2,16.2,92,0.00,,---,0.00,,VWS V14.01,2013-05-17 13:45:00,
2013-05-17 08:50:00,76.5,74.0,29.79,SSE,153,6.2,10.2,92,0.00,,---,0.00,,VWS V14.01,2013-05-17 13:50:00,
2013-05-17 08:55:00,76.7,74.2,29.79,SSE,157,8.2,15.2,92,0.00,,---,0.00,,VWS V14.01,2013-05-17 13:55:00,
2013-05-17 09:00:00,76.7,73.9,29.80,SSE,152,3.2,16.2,91,0.00,,---,0.00,,VWS V14.01,2013-05-17 14:00:00,
2013-05-17 09:05:00,76.7,73.9,29.80,SSE,161,4.2,13.2,91,0.00,,---,0.00,,VWS V14.01,2013-05-17 14:05:00,
2013-05-17 09:10:00,76.7,73.9,29.80,South,181,5.2,12.2,91,0.00,,---,0.00,,VWS V14.01,2013-05-17 14:10:00,
2013-05-17 09:15:00,76.8,74.0,29.80,South,176,3.2,8.2,91,0.00,,---,0.00,,VWS V14.01,2013-05-17 14:15:00,
2013-05-17 09:20:00,77.0,74.2,29.80,SE,146,11.2,11.2,91,0.00,,---,0.00,,VWS V14.01,2013-05-17 14:20:00,
2013-05-17 09:25:00,77.0,73.8,29.80,SSE,148,14.2,15.2,90,0.00,,---,0.00,,VWS V14.01,2013-05-17 14:25:00,
2013-05-17 09:30:00,77.0,74.2,29.81,SSE,153,12.2,16.2,91,0.00,,---,0.00,,VWS V14.01,2013-05-17 14:30:00,
2013-05-17 09:35:00,77.0,73.8,29.81,South,186,6.2,12.2,90,0.00,,---,0.00,,VWS V14.01,2013-05-17 14:35:00,
2013-05-17 09:40:00,77.4,74.2,29.81,South,184,3.2,12.2,90,0.00,,---,0.00,,VWS V14.01,2013-05-17 14:40:00,
2013-05-17 09:45:00,77.6,74.4,29.81,SE,146,10.2,15.2,90,0.00,,---,0.00,,VWS V14.01,2013-05-17 14:45:00,
2013-05-17 09:50:00,77.4,73.9,29.81,South,188,6.2,14.2,89,0.00,,---,0.00,,VWS V14.01,2013-05-17 14:50:00,
2013-05-17 09:55:00,77.9,74.1,29.81,SSE,153,7.2,13.2,88,0.00,,---,0.00,,VWS V14.01,2013-05-17 14:55:00,
2013-05-17 10:00:00,77.9,74.4,29.81,South,178,3.2,13.2,89,0.00,,---,0.00,,VWS V14.01,2013-05-17 15:00:00,
2013-05-17 10:05:00,78.1,74.3,29.81,South,183,6.2,10.2,88,0.00,,---,0.00,,VWS V14.01,2013-05-17 15:05:00,
2013-05-17 10:10:00,78.5,74.0,29.81,South,171,11.2,16.2,86,0.00,,---,0.00,,VWS V14.01,2013-05-17 15:10:00,
2013-05-17 10:15:00,78.6,74.1,29.81,SE,142,5.2,13.2,86,0.00,,---,0.00,,VWS V14.01,2013-05-17 15:15:00,
2013-05-17 10:20:00,78.8,74.3,29.81,SW,219,8.2,16.2,86,0.00,,---,0.00,,VWS V14.01,2013-05-17 15:20:00,
2013-05-17 10:25:00,79.2,74.3,29.81,SSE,153,5.2,13.2,85,0.00,,---,0.00,,VWS V14.01,2013-05-17 15:25:00,
2013-05-17 10:30:00,79.4,74.2,29.81,SSE,153,7.2,20.2,84,0.00,,---,0.00,,VWS V14.01,2013-05-17 15:30:00,
2013-05-17 10:35:00,79.6,74.3,29.81,SE,136,6.2,14.2,84,0.00,,---,0.00,,VWS V14.01,2013-05-17 15:35:00,
2013-05-17 10:40:00,79.2,73.9,29.81,SSE,150,6.2,18.2,84,0.00,,---,0.00,,VWS V14.01,2013-05-17 15:40:00,
2013-05-17 10:45:00,79.4,74.2,29.81,SSE,166,7.2,18.2,84,0.00,,---,0.00,,VWS V14.01,2013-05-17 15:45:00,
2013-05-17 10:50:00,79.6,74.3,29.81,SE,124,7.2,17.2,84,0.00,,---,0.00,,VWS V14.01,2013-05-17 15:50:00,
2013-05-17 10:55:00,79.6,74.3,29.81,SSE,159,10.2,17.2,84,0.00,,---,0.00,,VWS V14.01,2013-05-17 15:55:00,
2013-05-17 11:00:00,80.3,75.0,29.81,SSE,153,8.2,12.2,84,0.00,,---,0.00,,VWS V14.01,2013-05-17 16:00:00,
2013-05-17 11:05:00,80.3,75.0,29.82,SE,139,14.2,18.2,84,0.00,,---,0.00,,VWS V14.01,2013-05-17 16:05:00,
2013-05-17 11:10:00,80.7,75.4,29.82,SSW,203,7.2,16.2,84,0.00,,---,0.00,,VWS V14.01,2013-05-17 16:10:00,
2013-05-17 11:15:00,81.1,75.1,29.82,South,179,9.2,15.2,82,0.00,,---,0.00,,VWS V14.01,2013-05-17 16:15:00,
2013-05-17 11:20:00,80.9,75.3,29.82,SSE,155,7.2,14.2,83,0.00,,---,0.00,,VWS V14.01,2013-05-17 16:20:00,
2013-05-17 11:25:00,81.2,75.6,29.82,SSE,153,13.2,16.2,83,0.00,,---,0.00,,VWS V14.01,2013-05-17 16:25:00,
2013-05-17 11:30:00,81.4,75.4,29.82,SSE,153,14.2,14.2,82,0.00,,---,0.00,,VWS V14.01,2013-05-17 16:30:00,
2013-05-17 11:35:00,80.9,75.3,29.82,SE,135,12.2,17.2,83,0.00,,---,0.00,,VWS V14.01,2013-05-17 16:35:00,
2013-05-17 11:40:00,81.1,75.1,29.82,SSE,158,11.2,16.2,82,0.00,,---,0.00,,VWS V14.01,2013-05-17 16:40:00,
2013-05-17 11:45:00,81.2,75.6,29.82,SSE,157,7.2,17.2,83,0.00,,---,0.00,,VWS V14.01,2013-05-17 16:45:00,
2013-05-17 11:50:00,81.6,75.9,29.82,South,190,8.2,13.2,83,0.00,,---,0.00,,VWS V14.01,2013-05-17 16:50:00,
2013-05-17 11:55:00,81.1,75.4,29.82,SE,143,10.2,20.2,83,0.00,,---,0.00,,VWS V14.01,2013-05-17 16:55:00,
2013-05-17 12:00:00,80.7,75.1,29.82,SE,140,14.2,20.2,83,0.00,,---,0.00,,VWS V14.01,2013-05-17 17:00:00,
2013-05-17 12:05:00,80.5,75.2,29.82,South,174,15.2,19.2,84,0.00,,---,0.00,,VWS V14.01,2013-05-17 17:05:00,
2013-05-17 12:10:00,80.5,75.2,29.82,SSE,164,11.2,20.2,84,0.00,,---,0.00,,VWS V14.01,2013-05-17 17:10:00,
2013-05-17 12:15:00,80.9,75.3,29.82,SSW,200,6.2,21.2,83,0.00,,---,0.00,,VWS V14.01,2013-05-17 17:15:00,
2013-05-17 12:20:00,81.1,75.1,29.82,SSE,161,13.2,20.2,82,0.00,,---,0.00,,VWS V14.01,2013-05-17 17:20:00,
2013-05-17 12:25:00,80.9,74.9,29.82,ESE,117,5.2,21.2,82,0.00,,---,0.00,,VWS V14.01,2013-05-17 17:25:00,
2013-05-17 12:30:00,81.1,75.1,29.82,SSE,167,15.2,19.2,82,0.00,,---,0.00,,VWS V14.01,2013-05-17 17:30:00,
2013-05-17 12:35:00,81.2,74.8,29.82,SE,139,9.2,20.2,81,0.00,,---,0.00,,VWS V14.01,2013-05-17 17:35:00,
2013-05-17 12:40:00,81.8,75.4,29.82,South,169,6.2,20.2,81,0.00,,---,0.00,,VWS V14.01,2013-05-17 17:40:00,
2013-05-17 12:45:00,81.6,74.8,29.82,SE,140,13.2,21.2,80,0.00,,---,0.00,,VWS V14.01,2013-05-17 17:45:00,
2013-05-17 12:50:00,81.6,75.2,29.82,SSE,153,5.2,20.2,81,0.00,,---,0.00,,VWS V14.01,2013-05-17 17:50:00,
2013-05-17 12:55:00,81.4,75.0,29.82,SE,140,10.2,22.2,81,0.00,,---,0.00,,VWS V14.01,2013-05-17 17:55:00,
2013-05-17 13:00:00,82.0,76.0,29.82,SSE,150,7.2,21.2,82,0.00,,---,0.00,,VWS V14.01,2013-05-17 18:00:00,
2013-05-17 13:05:00,82.0,75.2,29.81,SSE,153,8.2,18.2,80,0.00,,---,0.00,,VWS V14.01,2013-05-17 18:05:00,
2013-05-17 13:10:00,82.0,75.6,29.81,SSE,148,10.2,21.2,81,0.00,,---,0.00,,VWS V14.01,2013-05-17 18:10:00,
2013-05-17 13:15:00,82.2,75.4,29.81,SSE,160,6.2,20.2,80,0.00,,---,0.00,,VWS V14.01,2013-05-17 18:15:00,
2013-05-17 13:20:00,82.2,75.4,29.81,SSW,196,4.2,21.2,80,0.00,,---,0.00,,VWS V14.01,2013-05-17 18:20:00,
2013-05-17 13:25:00,82.0,75.6,29.81,SSE,157,16.2,20.2,81,0.00,,---,0.00,,VWS V14.01,2013-05-17 18:25:00,
2013-05-17 13:30:00,82.2,75.4,29.81,SE,146,13.2,21.2,80,0.00,,---,0.00,,VWS V14.01,2013-05-17 18:30:00,
2013-05-17 13:35:00,82.4,75.2,29.81,SE,135,10.2,26.2,79,0.00,,---,0.00,,VWS V14.01,2013-05-17 18:35:00,
2013-05-17 13:40:00,82.0,75.2,29.81,SE,141,13.2,19.2,80,0.00,,---,0.00,,VWS V14.01,2013-05-17 18:40:00,
2013-05-17 13:45:00,82.6,75.8,29.81,SSE,167,13.2,23.2,80,0.00,,---,0.00,,VWS V14.01,2013-05-17 18:45:00,
2013-05-17 13:50:00,82.2,75.8,29.80,SSE,150,12.2,21.2,81,0.00,,---,0.00,,VWS V14.01,2013-05-17 18:50:00,
2013-05-17 13:55:00,83.0,75.8,29.80,SSE,159,6.2,19.2,79,0.00,,---,0.00,,VWS V14.01,2013-05-17 18:55:00,
2013-05-17 14:00:00,82.8,76.0,29.80,SSE,157,3.2,20.2,80,0.00,,---,0.00,,VWS V14.01,2013-05-17 19:00:00,
2013-05-17 14:05:00,82.6,75.4,29.80,East,97,13.2,21.2,79,0.00,,---,0.00,,VWS V14.01,2013-05-17 19:05:00,
2013-05-17 14:10:00,82.8,75.6,29.80,SE,141,5.2,20.2,79,0.00,,---,0.00,,VWS V14.01,2013-05-17 19:10:00,
2013-05-17 14:15:00,83.4,75.8,29.80,SSE,168,6.2,21.2,78,0.00,,---,0.00,,VWS V14.01,2013-05-17 19:15:00,
2013-05-17 14:20:00,83.2,75.6,29.79,SSE,154,17.2,21.2,78,0.00,,---,0.00,,VWS V14.01,2013-05-17 19:20:00,
2013-05-17 14:25:00,82.6,75.4,29.79,South,169,13.2,23.2,79,0.00,,---,0.00,,VWS V14.01,2013-05-17 19:25:00,
2013-05-17 14:30:00,82.6,75.4,29.79,SE,130,11.2,22.2,79,0.00,,---,0.00,,VWS V14.01,2013-05-17 19:30:00,
2013-05-17 14:35:00,82.6,75.8,29.79,SE,128,11.2,25.2,80,0.00,,---,0.00,,VWS V14.01,2013-05-17 19:35:00,
2013-05-17 14:40:00,82.4,75.2,29.79,SSE,150,14.2,22.2,79,0.00,,---,0.00,,VWS V14.01,2013-05-17 19:40:00,
2013-05-17 14:45:00,82.6,75.4,29.79,SSE,157,9.2,22.2,79,0.00,,---,0.00,,VWS V14.01,2013-05-17 19:45:00,
2013-05-17 14:50:00,82.2,75.0,29.78,SE,144,11.2,19.2,79,0.00,,---,0.00,,VWS V14.01,2013-05-17 19:50:00,
2013-05-17 14:55:00,82.2,75.0,29.78,SSE,155,15.2,23.2,79,0.00,,---,0.00,,VWS V14.01,2013-05-17 19:55:00,
2013-05-17 15:00:00,83.2,76.4,29.78,SSE,159,11.2,21.2,80,0.00,,---,0.00,,VWS V14.01,2013-05-17 20:00:00,
2013-05-17 15:05:00,82.8,75.6,29.78,East,93,14.2,24.2,79,0.00,,---,0.00,,VWS V14.01,2013-05-17 20:05:00,
2013-05-17 15:10:00,83.0,75.4,29.78,SSE,151,15.2,23.2,78,0.00,,---,0.00,,VWS V14.01,2013-05-17 20:10:00,
2013-05-17 15:15:00,82.6,75.4,29.78,SSE,153,10.2,21.2,79,0.00,,---,0.00,,VWS V14.01,2013-05-17 20:15:00,
2013-05-17 15:20:00,82.4,74.9,29.77,SSE,160,6.2,22.2,78,0.00,,---,0.00,,VWS V14.01,2013-05-17 20:20:00,
2013-05-17 15:25:00,82.8,75.2,29.77,SSE,152,15.2,24.2,78,0.00,,---,0.00,,VWS V14.01,2013-05-17 20:25:00,
2013-05-17 15:30:00,83.2,75.2,29.77,South,173,17.2,25.2,77,0.00,,---,0.00,,VWS V14.01,2013-05-17 20:30:00,
2013-05-17 15:35:00,83.0,75.4,29.77,SE,131,14.2,23.2,78,0.00,,---,0.00,,VWS V14.01,2013-05-17 20:35:00,
2013-05-17 15:40:00,83.6,76.0,29.77,ESE,120,6.2,20.2,78,0.00,,---,0.00,,VWS V14.01,2013-05-17 20:40:00,
2013-05-17 15:45:00,83.6,75.2,29.77,ESE,118,12.2,19.2,76,0.00,,---,0.00,,VWS V14.01,2013-05-17 20:45:00,
2013-05-17 15:50:00,83.8,75.8,29.76,SE,127,15.2,17.2,77,0.00,,---,0.00,,VWS V14.01,2013-05-17 20:50:00,
2013-05-17 15:55:00,83.4,75.1,29.76,SSE,154,16.2,21.2,76,0.00,,---,0.00,,VWS V14.01,2013-05-17 20:55:00,
2013-05-17 16:00:00,83.0,75.1,29.76,SE,143,17.2,22.2,77,0.00,,---,0.00,,VWS V14.01,2013-05-17 21:00:00,
2013-05-17 16:05:00,83.0,75.1,29.76,SE,139,16.2,20.2,77,0.00,,---,0.00,,VWS V14.01,2013-05-17 21:05:00,
2013-05-17 16:10:00,82.8,74.5,29.76,SE,134,13.2,19.2,76,0.00,,---,0.00,,VWS V14.01,2013-05-17 21:10:00,
2013-05-17 16:15:00,82.8,74.9,29.76,SE,138,13.2,23.2,77,0.00,,---,0.00,,VWS V14.01,2013-05-17 21:15:00,
2013-05-17 16:20:00,83.2,75.2,29.76,SSE,159,16.2,18.2,77,0.00,,---,0.00,,VWS V14.01,2013-05-17 21:20:00,
2013-05-17 16:25:00,82.6,74.7,29.76,ESE,114,11.2,20.2,77,0.00,,---,0.00,,VWS V14.01,2013-05-17 21:25:00,
2013-05-17 16:30:00,82.8,74.9,29.76,SE,146,16.2,20.2,77,0.00,,---,0.00,,VWS V14.01,2013-05-17 21:30:00,
2013-05-17 16:35:00,83.0,75.1,29.76,SE,144,11.2,20.2,77,0.00,,---,0.00,,VWS V14.01,2013-05-17 21:35:00,
2013-05-17 16:40:00,83.4,75.4,29.76,ESE,120,13.2,16.2,77,0.00,,---,0.00,,VWS V14.01,2013-05-17 21:40:00,
2013-05-17 16:45:00,83.2,74.8,29.76,SE,143,15.2,17.2,76,0.00,,---,0.00,,VWS V14.01,2013-05-17 21:45:00,
2013-05-17 16:50:00,83.2,74.8,29.75,SE,139,13.2,18.2,76,0.00,,---,0.00,,VWS V14.01,2013-05-17 21:50:00,
2013-05-17 16:55:00,83.6,74.4,29.75,SE,138,11.2,18.2,74,0.00,,---,0.00,,VWS V14.01,2013-05-17 21:55:00,
2013-05-17 17:00:00,83.8,74.6,29.75,SSE,154,8.2,15.2,74,0.00,,---,0.00,,VWS V14.01,2013-05-17 22:00:00,
2013-05-17 17:05:00,83.4,73.4,29.75,SSE,148,22.2,22.2,72,0.00,,---,0.00,,VWS V14.01,2013-05-17 22:05:00,
2013-05-17 17:10:00,83.4,73.0,29.75,SSE,150,10.2,17.2,71,0.00,,---,0.00,,VWS V14.01,2013-05-17 22:10:00,
2013-05-17 17:15:00,83.6,72.8,29.75,SE,144,10.2,19.2,70,0.00,,---,0.00,,VWS V14.01,2013-05-17 22:15:00,
2013-05-17 17:20:00,84.0,73.2,29.75,SSE,157,13.2,18.2,70,0.00,,---,0.00,,VWS V14.01,2013-05-17 22:20:00,
2013-05-17 17:25:00,83.8,72.6,29.75,SE,137,10.2,21.2,69,0.00,,---,0.00,,VWS V14.01,2013-05-17 22:25:00,
2013-05-17 17:29:00,84.0,73.2,29.75,SE,131,11.2,21.2,70,0.00,,---,0.00,,VWS V14.01,2013-05-17 22:29:00,
2013-05-17 17:30:00,84.0,72.7,29.75,ESE,113,13.2,21.2,69,0.00,,---,0.00,0.00,VWS V14.01,2013-05-17 22:30:00,
2013-05-17 17:34:00,84.0,72.7,29.75,SE,124,8.2,18.2,69,0.00,,---,0.00,,VWS V14.01,2013-05-17 22:34:00,
2013-05-17 17:35:00,84.0,72.7,29.75,SE,138,14.2,18.2,69,0.00,,---,0.00,0.00,VWS V14.01,2013-05-17 22:35:00,
2013-05-17 17:39:00,83.8,73.0,29.75,SE,132,10.2,18.2,70,0.00,,---,0.00,,VWS V14.01,2013-05-17 22:39:00,
2013-05-17 17:40:00,83.6,73.2,29.75,SE,140,10.2,18.2,71,0.00,,---,0.00,0.00,VWS V14.01,2013-05-17 22:40:00,
2013-05-17 17:44:00,83.0,72.2,29.75,SE,142,19.2,20.2,70,0.00,,---,0.00,,VWS V14.01,2013-05-17 22:44:00,
2013-05-17 17:45:00,82.8,72.9,29.75,ESE,123,10.2,20.2,72,0.00,,---,0.00,0.00,VWS V14.01,2013-05-17 22:45:00,
2013-05-17 17:49:00,83.0,73.1,29.75,SE,130,11.2,17.2,72,0.00,,---,0.00,,VWS V14.01,2013-05-17 22:49:00,
2013-05-17 17:50:00,82.8,73.7,29.75,SE,146,11.2,17.2,74,0.00,,---,0.00,0.00,VWS V14.01,2013-05-17 22:50:00,
2013-05-17 17:54:00,82.6,73.9,29.75,SE,125,15.2,16.2,75,0.00,,---,0.00,,VWS V14.01,2013-05-17 22:54:00,
2013-05-17 17:55:00,82.6,74.3,29.75,SSE,150,8.2,16.2,76,0.00,,---,0.00,0.00,VWS V14.01,2013-05-17 22:55:00,
2013-05-17 17:59:00,82.4,74.1,29.75,SE,133,10.2,16.2,76,0.00,,---,0.00,,VWS V14.01,2013-05-17 22:59:00,
2013-05-17 18:00:00,82.4,74.5,29.75,East,98,15.2,17.2,77,0.00,,---,0.00,0.00,VWS V14.01,2013-05-17 23:00:00,
2013-05-17 18:04:00,82.6,75.4,29.75,ESE,117,14.2,18.2,79,0.00,,---,0.00,,VWS V14.01,2013-05-17 23:04:00,
2013-05-17 18:05:00,82.4,74.9,29.75,SE,140,12.2,18.2,78,0.00,,---,0.00,0.00,VWS V14.01,2013-05-17 23:05:00,
2013-05-17 18:09:00,82.0,75.2,29.75,East,98,10.2,15.2,80,0.00,,---,0.00,,VWS V14.01,2013-05-17 23:09:00,
2013-05-17 18:10:00,81.6,75.2,29.75,East,88,6.2,15.2,81,0.00,,---,0.00,0.00,VWS V14.01,2013-05-17 23:10:00,
2013-05-17 18:14:00,81.2,75.2,29.75,ESE,102,14.2,15.2,82,0.00,,---,0.00,,VWS V14.01,2013-05-17 23:14:00,
2013-05-17 18:15:00,81.2,75.2,29.75,ESE,112,6.2,15.2,82,0.00,,---,0.00,0.00,VWS V14.01,2013-05-17 23:15:00,
2013-05-17 18:19:00,81.1,75.1,29.75,ESE,119,13.2,17.2,82,0.00,,---,0.00,,VWS V14.01,2013-05-17 23:19:00,
2013-05-17 18:20:00,81.1,75.4,29.75,East,89,6.2,17.2,83,0.00,,---,0.00,0.00,VWS V14.01,2013-05-17 23:20:00,
2013-05-17 18:24:00,80.9,74.9,29.75,ESE,121,4.2,16.2,82,0.00,,---,0.00,,VWS V14.01,2013-05-17 23:24:00,
2013-05-17 18:25:00,80.9,74.9,29.75,ESE,112,11.2,17.2,82,0.00,,---,0.00,0.00,VWS V14.01,2013-05-17 23:25:00,
2013-05-17 18:29:00,80.9,74.9,29.75,SE,126,7.2,16.2,82,0.00,,---,0.00,,VWS V14.01,2013-05-17 23:29:00,
2013-05-17 18:30:00,80.9,74.9,29.76,ESE,109,7.2,17.2,82,0.00,,---,0.00,0.00,VWS V14.01,2013-05-17 23:30:00,
2013-05-17 18:34:00,80.9,74.9,29.76,East,99,8.2,14.2,82,0.00,,---,0.00,,VWS V14.01,2013-05-17 23:34:00,
2013-05-17 18:35:00,80.9,74.9,29.76,ESE,123,10.2,14.2,82,0.00,,---,0.00,0.00,VWS V14.01,2013-05-17 23:35:00,
2013-05-17 18:39:00,80.9,74.9,29.76,ESE,111,10.2,18.2,82,0.00,,---,0.00,,VWS V14.01,2013-05-17 23:39:00,
2013-05-17 18:40:00,80.9,74.9,29.76,ESE,111,7.2,18.2,82,0.00,,---,0.00,0.00,VWS V14.01,2013-05-17 23:40:00,
2013-05-17 18:44:00,81.1,75.1,29.76,ESE,117,12.2,16.2,82,0.00,,---,0.00,,VWS V14.01,2013-05-17 23:44:00,
2013-05-17 18:45:00,80.9,74.9,29.76,ESE,105,5.2,16.2,82,0.00,,---,0.00,0.00,VWS V14.01,2013-05-17 23:45:00,
2013-05-17 18:49:00,80.5,74.9,29.76,ESE,110,15.2,17.2,83,0.00,,---,0.00,,VWS V14.01,2013-05-17 23:49:00,
2013-05-17 18:50:00,80.3,74.7,29.76,ESE,104,7.2,17.2,83,0.00,,---,0.00,0.00,VWS V14.01,2013-05-17 23:50:00,
2013-05-17 18:54:00,79.9,74.6,29.76,SE,127,11.2,16.2,84,0.00,,---,0.00,,VWS V14.01,2013-05-17 23:54:00,
2013-05-17 18:55:00,79.9,74.6,29.76,SE,142,8.2,16.2,84,0.00,,---,0.00,0.00,VWS V14.01,2013-05-17 23:55:00,
2013-05-17 18:59:00,79.8,74.9,29.76,East,88,9.2,15.2,85,0.00,,---,0.00,,VWS V14.01,2013-05-17 23:59:00,
2013-05-17 19:00:00,79.8,74.9,29.76,ESE,103,6.2,15.2,85,0.00,,---,0.00,0.00,VWS V14.01,2013-05-18 00:00:00,
2013-05-17 19:04:00,79.6,74.7,29.76,East,94,6.2,15.2,85,0.00,,---,0.00,,VWS V14.01,2013-05-18 00:04:00,
2013-05-17 19:05:00,79.6,75.1,29.76,East,84,8.2,15.2,86,0.00,,---,0.00,0.00,VWS V14.01,2013-05-18 00:05:00,
2013-05-17 19:09:00,79.4,74.8,29.76,ENE,71,11.2,18.2,86,0.00,,---,0.00,,VWS V14.01,2013-05-18 00:09:00,
2013-05-17 19:10:00,79.6,75.1,29.76,SE,135,8.2,18.2,86,0.00,,---,0.00,0.00,VWS V14.01,2013-05-18 00:10:00,
2013-05-17 19:14:00,79.6,75.4,29.76,East,96,12.2,13.2,87,0.00,,---,0.00,,VWS V14.01,2013-05-18 00:14:00,
2013-05-17 19:15:00,79.4,74.8,29.76,SE,130,7.2,16.2,86,0.00,,---,0.00,0.00,VWS V14.01,2013-05-18 00:15:00,
2013-05-17 19:19:00,79.4,75.2,29.76,SSE,155,13.2,17.2,87,0.00,,---,0.00,,VWS V14.01,2013-05-18 00:19:00,
2013-05-17 19:20:00,79.4,75.2,29.76,ESE,118,12.2,17.2,87,0.00,,---,0.00,0.00,VWS V14.01,2013-05-18 00:20:00,
2013-05-17 19:24:00,79.8,75.6,29.76,ESE,121,16.2,18.2,87,0.00,,---,0.00,,VWS V14.01,2013-05-18 00:24:00,
2013-05-17 19:25:00,79.8,75.6,29.76,SSE,155,11.2,18.2,87,0.00,,---,0.00,0.00,VWS V14.01,2013-05-18 00:25:00,
2013-05-17 19:29:00,79.2,75.0,29.76,SE,140,19.2,22.2,87,0.00,,---,0.00,,VWS V14.01,2013-05-18 00:29:00,
2013-05-17 19:30:00,79.0,75.2,29.77,ESE,123,10.2,22.2,88,0.00,,---,0.00,0.00,VWS V14.01,2013-05-18 00:30:00,
2013-05-17 19:34:00,78.6,75.1,29.76,ESE,114,11.2,21.2,89,0.00,,---,0.00,,VWS V14.01,2013-05-18 00:34:00,
2013-05-17 19:35:00,78.6,75.1,29.77,SE,130,10.2,21.2,89,0.00,,---,0.00,0.00,VWS V14.01,2013-05-18 00:35:00,
2013-05-17 19:39:00,78.3,75.1,29.76,SSE,148,17.2,20.2,90,0.00,,---,0.00,,VWS V14.01,2013-05-18 00:39:00,
2013-05-17 19:40:00,78.1,74.9,29.77,SE,126,6.2,20.2,90,0.00,,---,0.00,0.00,VWS V14.01,2013-05-18 00:40:00,
2013-05-17 19:44:00,78.1,75.3,29.76,ESE,123,7.2,15.2,91,0.00,,---,0.00,,VWS V14.01,2013-05-18 00:44:00,
2013-05-17 19:45:00,78.1,75.3,29.77,East,93,16.2,18.2,91,0.00,,---,0.00,0.00,VWS V14.01,2013-05-18 00:45:00,
2013-05-17 19:49:00,77.9,75.1,29.77,ESE,103,6.2,18.2,91,0.00,,---,0.00,,VWS V14.01,2013-05-18 00:49:00,
2013-05-17 19:50:00,77.9,75.4,29.77,East,100,4.2,18.2,92,0.00,,---,0.00,0.00,VWS V14.01,2013-05-18 00:50:00,
2013-05-17 19:54:00,77.7,75.2,29.77,SE,144,12.2,19.2,92,0.00,,---,0.00,,VWS V14.01,2013-05-18 00:54:00,
2013-05-17 19:55:00,77.7,75.2,29.77,East,91,10.2,19.2,92,0.00,,---,0.00,0.00,VWS V14.01,2013-05-18 00:55:00,
2013-05-17 19:59:00,77.6,75.1,29.77,ESE,115,11.2,15.2,92,0.00,,---,0.00,,VWS V14.01,2013-05-18 00:59:00,
2013-05-17 20:00:00,77.6,75.4,29.77,ESE,123,7.2,15.2,93,0.00,,---,0.00,0.00,VWS V14.01,2013-05-18 01:00:00,
2013-05-17 20:04:00,77.6,75.4,29.77,ESE,114,6.2,19.2,93,0.00,,---,0.00,,VWS V14.01,2013-05-18 01:04:00,
2013-05-17 20:05:00,77.6,75.4,29.77,SE,124,7.2,19.2,93,0.00,,---,0.00,0.00,VWS V14.01,2013-05-18 01:05:00,
2013-05-17 20:09:00,77.6,75.4,29.77,SE,128,15.2,16.2,93,0.00,,---,0.00,,VWS V14.01,2013-05-18 01:09:00,
2013-05-17 20:10:00,77.6,75.4,29.77,ESE,117,13.2,16.2,93,0.00,,---,0.00,0.00,VWS V14.01,2013-05-18 01:10:00,
2013-05-17 20:14:00,77.7,75.5,29.77,ESE,109,12.2,15.2,93,0.00,,---,0.00,,VWS V14.01,2013-05-18 01:14:00,
2013-05-17 20:15:00,77.9,75.7,29.78,ESE,115,15.2,15.2,93,0.00,,---,0.00,0.00,VWS V14.01,2013-05-18 01:15:00,
2013-05-17 20:19:00,77.6,75.4,29.78,SE,142,6.2,19.2,93,0.00,,---,0.00,,VWS V14.01,2013-05-18 01:19:00,
2013-05-17 20:20:00,77.6,75.4,29.78,ESE,123,4.2,19.2,93,0.00,,---,0.00,0.00,VWS V14.01,2013-05-18 01:20:00,
2013-05-17 20:24:00,77.4,75.5,29.78,SE,136,7.2,19.2,94,0.00,,---,0.00,,VWS V14.01,2013-05-18 01:24:00,
2013-05-17 20:25:00,77.4,75.5,29.78,SE,132,11.2,19.2,94,0.00,,---,0.00,0.00,VWS V14.01,2013-05-18 01:25:00,
2013-05-17 20:29:00,77.2,75.3,29.78,SE,133,5.2,15.2,94,0.00,,---,0.00,,VWS V14.01,2013-05-18 01:29:00,
2013-05-17 20:30:00,77.2,75.3,29.79,SSE,154,15.2,15.2,94,0.00,,---,0.00,0.00,VWS V14.01,2013-05-18 01:30:00,
2013-05-17 20:34:00,77.2,75.3,29.79,SSE,157,7.2,19.2,94,0.00,,---,0.00,,VWS V14.01,2013-05-18 01:34:00,
2013-05-17 20:35:00,77.2,75.3,29.79,SE,140,14.2,19.2,94,0.00,,---,0.00,0.00,VWS V14.01,2013-05-18 01:35:00,
2013-05-17 20:39:00,77.2,75.3,29.79,SE,138,19.2,21.2,94,0.00,,---,0.00,,VWS V14.01,2013-05-18 01:39:00,
2013-05-17 20:40:00,77.2,75.3,29.79,SSE,155,10.2,21.2,94,0.00,,---,0.00,0.00,VWS V14.01,2013-05-18 01:40:00,
2013-05-17 20:44:00,77.2,75.3,29.79,ESE,117,12.2,17.2,94,0.00,,---,0.00,,VWS V14.01,2013-05-18 01:44:00,
2013-05-17 20:45:00,77.2,75.7,29.79,ESE,116,13.2,17.2,95,0.00,,---,0.00,0.00,VWS V14.01,2013-05-18 01:45:00,
2013-05-17 20:49:00,77.2,75.7,29.79,ESE,121,10.2,16.2,95,0.00,,---,0.00,,VWS V14.01,2013-05-18 01:49:00,
2013-05-17 20:50:00,77.2,75.7,29.79,SE,137,15.2,16.2,95,0.00,,---,0.00,0.00,VWS V14.01,2013-05-18 01:50:00,
2013-05-17 20:54:00,77.0,75.5,29.79,SE,145,8.2,18.2,95,0.00,,---,0.00,,VWS V14.01,2013-05-18 01:54:00,
2013-05-17 20:55:00,77.0,75.5,29.79,ESE,118,7.2,18.2,95,0.00,,---,0.00,0.00,VWS V14.01,2013-05-18 01:55:00,
2013-05-17 20:59:00,77.0,75.5,29.79,ESE,107,9.2,16.2,95,0.00,,---,0.00,,VWS V14.01,2013-05-18 01:59:00,
2013-05-17 21:00:00,77.0,75.5,29.80,East,92,6.2,16.2,95,0.00,,---,0.00,0.00,VWS V14.01,2013-05-18 02:00:00,
2013-05-17 21:04:00,77.0,75.5,29.80,SSE,158,11.2,15.2,95,0.00,,---,0.00,,VWS V14.01,2013-05-18 02:04:00,
2013-05-17 21:05:00,77.0,75.5,29.80,SE,136,12.2,17.2,95,0.00,,---,0.00,0.00,VWS V14.01,2013-05-18 02:05:00,
2013-05-17 21:09:00,77.2,75.7,29.80,SSE,157,9.2,18.2,95,0.00,,---,0.00,,VWS V14.01,2013-05-18 02:09:00,
2013-05-17 21:10:00,77.2,75.7,29.80,SE,141,17.2,18.2,95,0.00,,---,0.00,0.00,VWS V14.01,2013-05-18 02:10:00,
2013-05-17 21:14:00,77.2,75.7,29.80,ESE,111,8.2,19.2,95,0.00,,---,0.00,,VWS V14.01,2013-05-18 02:14:00,
2013-05-17 21:15:00,77.2,75.7,29.81,SE,136,7.2,19.2,95,0.00,,---,0.00,0.00,VWS V14.01,2013-05-18 02:15:00,
2013-05-17 21:19:00,77.2,75.7,29.81,ESE,111,14.2,17.2,95,0.00,,---,0.00,,VWS V14.01,2013-05-18 02:19:00,
2013-05-17 21:20:00,77.2,75.7,29.81,ESE,107,12.2,17.2,95,0.00,,---,0.00,0.00,VWS V14.01,2013-05-18 02:20:00,
2013-05-17 21:24:00,77.4,75.9,29.81,SSE,157,7.2,18.2,95,0.00,,---,0.00,,VWS V14.01,2013-05-18 02:24:00,
2013-05-17 21:25:00,77.4,75.9,29.81,SE,144,14.2,18.2,95,0.00,,---,0.00,0.00,VWS V14.01,2013-05-18 02:25:00,
2013-05-17 21:29:00,77.0,75.5,29.81,SSE,165,11.2,18.2,95,0.00,,---,0.00,,VWS V14.01,2013-05-18 02:29:00,
2013-05-17 21:30:00,77.2,75.7,29.81,SE,130,11.2,18.2,95,0.00,,---,0.00,0.00,VWS V14.01,2013-05-18 02:30:00,
2013-05-17 21:34:00,77.0,75.5,29.81,SE,141,12.2,19.2,95,0.00,,---,0.00,,VWS V14.01,2013-05-18 02:34:00,
2013-05-17 21:35:00,77.0,75.5,29.81,SE,124,7.2,19.2,95,0.00,,---,0.00,0.00,VWS V14.01,2013-05-18 02:35:00,
2013-05-17 21:39:00,77.0,75.5,29.81,SSE,164,12.2,22.2,95,0.00,,---,0.00,,VWS V14.01,2013-05-18 02:39:00,
2013-05-17 21:40:00,77.0,75.5,29.81,SSE,150,16.2,22.2,95,0.00,,---,0.00,0.00,VWS V14.01,2013-05-18 02:40:00,
2013-05-17 21:44:00,77.0,75.5,29.81,SSE,150,6.2,16.2,95,0.00,,---,0.00,,VWS V14.01,2013-05-18 02:44:00,
2013-05-17 21:45:00,77.0,75.5,29.81,SSE,154,10.2,17.2,95,0.00,,---,0.00,0.00,VWS V14.01,2013-05-18 02:45:00,
2013-05-17 21:49:00,77.0,75.5,29.81,SE,129,11.2,19.2,95,0.00,,---,0.00,,VWS V14.01,2013-05-18 02:49:00,
2013-05-17 21:50:00,77.0,75.5,29.81,SE,140,13.2,19.2,95,0.00,,---,0.00,0.00,VWS V14.01,2013-05-18 02:50:00,
2013-05-17 21:54:00,77.0,75.5,29.81,SE,142,17.2,19.2,95,0.00,,---,0.00,,VWS V14.01,2013-05-18 02:54:00,
2013-05-17 21:55:00,77.0,75.5,29.81,SE,140,15.2,20.2,95,0.00,,---,0.00,0.00,VWS V14.01,2013-05-18 02:55:00,
2013-05-17 21:59:00,77.0,75.5,29.81,SSE,150,16.2,19.2,95,0.00,,---,0.00,,VWS V14.01,2013-05-18 02:59:00,
2013-05-17 22:00:00,77.0,75.5,29.81,SE,128,12.2,19.2,95,0.00,,---,0.00,0.00,VWS V14.01,2013-05-18 03:00:00,
2013-05-17 22:04:00,77.0,75.5,29.81,SSE,151,17.2,17.2,95,0.00,,---,0.00,,VWS V14.01,2013-05-18 03:04:00,
2013-05-17 22:05:00,77.0,75.1,29.81,SSE,159,12.2,17.2,94,0.00,,---,0.00,0.00,VWS V14.01,2013-05-18 03:05:00,
2013-05-17 22:09:00,77.0,75.5,29.81,ESE,110,10.2,17.2,95,0.00,,---,0.00,,VWS V14.01,2013-05-18 03:09:00,
2013-05-17 22:10:00,77.0,75.5,29.81,SE,146,17.2,18.2,95,0.00,,---,0.00,0.00,VWS V14.01,2013-05-18 03:10:00,
2013-05-17 22:14:00,77.2,75.7,29.81,SE,143,8.2,19.2,95,0.00,,---,0.00,,VWS V14.01,2013-05-18 03:14:00,
2013-05-17 22:15:00,77.2,75.7,29.82,SE,145,8.2,19.2,95,0.00,,---,0.00,0.00,VWS V14.01,2013-05-18 03:15:00,
2013-05-17 22:19:00,77.4,75.9,29.82,SE,142,13.2,17.2,95,0.00,,---,0.00,,VWS V14.01,2013-05-18 03:19:00,
2013-05-17 22:20:00,77.4,75.5,29.82,SSE,166,11.2,17.2,94,0.00,,---,0.00,0.00,VWS V14.01,2013-05-18 03:20:00,
2013-05-17 22:24:00,77.4,75.5,29.82,SE,140,16.2,18.2,94,0.00,,---,0.00,,VWS V14.01,2013-05-18 03:24:00,
2013-05-17 22:25:00,77.2,75.3,29.82,SSE,149,11.2,22.2,94,0.00,,---,0.00,0.00,VWS V14.01,2013-05-18 03:25:00,
2013-05-17 22:29:00,77.2,75.3,29.82,SE,131,6.2,18.2,94,0.00,,---,0.00,,VWS V14.01,2013-05-18 03:29:00,
2013-05-17 22:30:00,77.2,75.3,29.83,SSE,166,4.2,18.2,94,0.00,,---,0.00,0.00,VWS V14.01,2013-05-18 03:30:00,
2013-05-17 22:34:00,77.2,75.7,29.82,SE,144,5.2,15.2,95,0.00,,---,0.00,,VWS V14.01,2013-05-18 03:34:00,
2013-05-17 22:35:00,77.2,75.7,29.83,SE,138,9.2,15.2,95,0.00,,---,0.00,0.00,VWS V14.01,2013-05-18 03:35:00,
2013-05-17 22:39:00,77.0,75.5,29.82,SSE,148,3.2,16.2,95,0.00,,---,0.00,,VWS V14.01,2013-05-18 03:39:00,
2013-05-17 22:40:00,77.2,75.7,29.83,SE,128,10.2,16.2,95,0.00,,---,0.00,0.00,VWS V14.01,2013-05-18 03:40:00,
2013-05-17 22:44:00,77.2,75.7,29.82,SE,137,11.2,20.2,95,0.00,,---,0.00,,VWS V14.01,2013-05-18 03:44:00,
2013-05-17 22:45:00,77.2,75.7,29.84,SE,139,8.2,20.2,95,0.00,,---,0.00,0.00,VWS V14.01,2013-05-18 03:45:00,
2013-05-17 22:49:00,77.0,75.5,29.84,ESE,113,10.2,17.2,95,0.00,,---,0.00,,VWS V14.01,2013-05-18 03:49:00,
2013-05-17 22:50:00,77.0,75.5,29.84,SSE,149,9.2,17.2,95,0.00,,---,0.00,0.00,VWS V14.01,2013-05-18 03:50:00,
2013-05-17 22:54:00,77.0,75.5,29.84,South,184,10.2,15.2,95,0.00,,---,0.00,,VWS V14.01,2013-05-18 03:54:00,
2013-05-17 22:55:00,77.0,75.5,29.84,SE,145,10.2,15.2,95,0.00,,---,0.00,0.00,VWS V14.01,2013-05-18 03:55:00,
2013-05-17 22:59:00,77.0,75.5,29.84,SSE,163,7.2,14.2,95,0.00,,---,0.00,,VWS V14.01,2013-05-18 03:59:00,
2013-05-17 23:00:00,77.0,75.5,29.83,SE,145,11.2,17.2,95,0.00,,---,0.00,0.00,VWS V14.01,2013-05-18 04:00:00,
2013-05-17 23:01:00,77.0,75.5,29.83,SSE,168,17.2,17.2,95,0.00,,---,0.00,,VWS V14.01,2013-05-18 04:01:00,
2013-05-17 23:02:00,77.0,75.5,29.83,SSE,150,10.2,17.2,95,0.00,,---,0.00,,VWS V14.01,2013-05-18 04:02:00,
2013-05-17 23:05:00,77.0,75.5,29.83,SSE,154,11.2,17.2,95,0.00,,---,0.00,0.00,VWS V14.01,2013-05-18 04:05:00,
2013-05-17 23:07:00,77.0,75.5,29.83,SSE,149,13.2,14.2,95,0.00,,---,0.00,,VWS V14.01,2013-05-18 04:07:00,
2013-05-17 23:10:00,77.0,75.5,29.83,SSE,164,12.2,18.2,95,0.00,,---,0.00,0.00,VWS V14.01,2013-05-18 04:10:00,
2013-05-17 23:12:00,77.0,75.5,29.83,SSE,147,7.2,14.2,95,0.00,,---,0.00,,VWS V14.01,2013-05-18 04:12:00,
2013-05-17 23:15:00,77.0,75.5,29.83,SSE,151,15.2,15.2,95,0.00,,---,0.00,0.00,VWS V14.01,2013-05-18 04:15:00,
2013-05-17 23:17:00,77.0,75.5,29.83,SE,146,6.2,16.2,95,0.00,,---,0.00,,VWS V14.01,2013-05-18 04:17:00,
2013-05-17 23:20:00,77.2,75.7,29.83,SE,143,18.2,18.2,95,0.00,,---,0.00,0.00,VWS V14.01,2013-05-18 04:20:00,
2013-05-17 23:22:00,77.2,75.7,29.83,SE,146,4.2,18.2,95,0.00,,---,0.00,,VWS V14.01,2013-05-18 04:22:00,
2013-05-17 23:25:00,77.2,75.7,29.83,SE,140,11.2,18.2,95,0.00,,---,0.00,0.00,VWS V14.01,2013-05-18 04:25:00,
2013-05-17 23:27:00,77.2,75.7,29.83,SE,141,10.2,13.2,95,0.00,,---,0.00,,VWS V14.01,2013-05-18 04:27:00,
2013-05-17 23:30:00,77.4,75.9,29.83,SE,138,13.2,17.2,95,0.00,,---,0.00,0.00,VWS V14.01,2013-05-18 04:30:00,
2013-05-17 23:32:00,77.2,75.7,29.83,SSE,152,4.2,15.2,95,0.00,,---,0.00,,VWS V14.01,2013-05-18 04:32:00,
2013-05-17 23:35:00,77.2,75.7,29.83,South,176,13.2,17.2,95,0.00,,---,0.00,0.00,VWS V14.01,2013-05-18 04:35:00,
2013-05-17 23:37:00,77.2,75.3,29.83,SE,137,11.2,16.2,94,0.00,,---,0.00,,VWS V14.01,2013-05-18 04:37:00,
2013-05-17 23:40:00,77.0,75.5,29.83,SE,137,14.2,16.2,95,0.00,,---,0.00,0.00,VWS V14.01,2013-05-18 04:40:00,
2013-05-17 23:42:00,77.0,75.5,29.83,SE,137,16.2,17.2,95,0.00,,---,0.00,,VWS V14.01,2013-05-18 04:42:00,
2013-05-17 23:45:00,77.0,75.5,29.84,SE,138,6.2,17.2,95,0.00,,---,0.00,0.00,VWS V14.01,2013-05-18 04:45:00,
2013-05-17 23:47:00,77.2,75.7,29.84,SSE,150,7.2,12.2,95,0.00,,---,0.00,,VWS V14.01,2013-05-18 04:47:00,
2013-05-17 23:50:00,77.0,75.5,29.84,SSE,153,7.2,16.2,95,0.00,,---,0.00,0.00,VWS V14.01,2013-05-18 04:50:00,
2013-05-17 23:52:00,77.0,75.5,29.84,SE,128,14.2,17.2,95,0.00,,---,0.00,,VWS V14.01,2013-05-18 04:52:00,
2013-05-17 23:55:00,77.0,75.5,29.84,SSE,153,3.2,17.2,95,0.00,,---,0.00,0.00,VWS V14.01,2013-05-18 04:55:00,
2013-05-17 23:57:00,77.0,75.5,29.84,SE,142,11.2,12.2,95,0.00,,---,0.00,,VWS V14.01,2013-05-18 04:57:00,